DLH481 KDEN-EDDM

Flight info

Callsign DLH481
Flight time N/A
Altitude 37000
Route EEONS8 WYNDM DCT HCT DCT OBH DCT KP69G DCT KG72K DCT OBK DCT HOCKE Q905 IPTOS DCT KEMVI Q852 TAMKO Q941 AGLUK DCT BAREE/N0489F390 N647B RIKAL/M084F400 DCT 53N050W 55N040W 56N030W 56N020W DCT RESNO DCT NETKI/N0491F410 DCT CON DCT LIPGO DCT NUCHU L607 KONAN UL607 SPI DCT MOVUM T109 HAREM/N0492F350 T104 ELMOX/N0486F270 T104 ROKIL ROKIL1A
Aircraft A359/H-SDE2E3GHIJ1J3J4J5LM1ORWXY/LB1D1

Departure

Time 2026-05-08 08:03
Airport Denver International Airport (KDEN)

Arrival

Time N/A
Airport Munich Airport (EDDM)
Time Latitude Longitude Altitude Speed Heading
2026-05-08 07:29 39.85457 -104.67285 5395 ft 0 kts 190°
2026-05-08 07:49 39.85454 -104.67285 5393 ft 5 kts 190°
2026-05-08 07:49 39.85468 -104.67283 5386 ft 4 kts 194°
2026-05-08 07:49 39.85494 -104.67274 5388 ft 4 kts 195°
2026-05-08 07:49 39.85515 -104.67266 5386 ft 4 kts 225°
2026-05-08 07:50 39.85522 -104.67238 5382 ft 4 kts 274°
2026-05-08 07:50 39.85520 -104.67209 5384 ft 1 kts 270°
2026-05-08 07:50 39.85521 -104.67240 5383 ft 5 kts 270°
2026-05-08 07:50 39.85521 -104.67257 5385 ft 0 kts 270°
2026-05-08 07:54 39.85521 -104.67273 5386 ft 6 kts 270°
2026-05-08 07:54 39.85528 -104.67313 5388 ft 3 kts 296°
2026-05-08 07:55 39.85541 -104.67337 5388 ft 6 kts 306°
2026-05-08 07:55 39.85579 -104.67408 5384 ft 13 kts 297°
2026-05-08 07:55 39.85591 -104.67531 5387 ft 13 kts 270°
2026-05-08 07:55 39.85592 -104.67637 5393 ft 10 kts 270°
2026-05-08 07:56 39.85593 -104.67716 5393 ft 7 kts 270°
2026-05-08 07:56 39.85593 -104.67770 5393 ft 5 kts 270°
2026-05-08 07:56 39.85594 -104.67838 5392 ft 10 kts 270°
2026-05-08 07:56 39.85594 -104.67942 5392 ft 13 kts 270°
2026-05-08 07:57 39.85596 -104.68074 5388 ft 14 kts 270°
2026-05-08 07:57 39.85596 -104.68188 5387 ft 11 kts 270°
2026-05-08 07:57 39.85598 -104.68285 5385 ft 11 kts 271°
2026-05-08 07:57 39.85599 -104.68406 5376 ft 16 kts 271°
2026-05-08 07:58 39.85558 -104.68509 5375 ft 10 kts 201°
2026-05-08 07:58 39.85505 -104.68518 5377 ft 5 kts 181°
2026-05-08 07:58 39.85479 -104.68518 5378 ft 3 kts 181°
2026-05-08 07:58 39.85452 -104.68519 5378 ft 6 kts 181°
2026-05-08 07:59 39.85396 -104.68520 5378 ft 10 kts 181°
2026-05-08 07:59 39.85313 -104.68521 5377 ft 14 kts 180°
2026-05-08 07:59 39.85216 -104.68537 5372 ft 12 kts 207°
2026-05-08 07:59 39.85199 -104.68616 5370 ft 9 kts 276°
2026-05-08 08:00 39.85202 -104.68715 5366 ft 12 kts 269°
2026-05-08 08:00 39.85200 -104.68836 5362 ft 15 kts 269°
2026-05-08 08:00 39.85197 -104.68985 5357 ft 18 kts 269°
2026-05-08 08:00 39.85195 -104.69142 5355 ft 17 kts 269°
2026-05-08 08:01 39.85200 -104.69293 5351 ft 17 kts 273°
2026-05-08 08:01 39.85203 -104.69445 5346 ft 17 kts 269°
2026-05-08 08:01 39.85203 -104.69579 5343 ft 11 kts 270°
2026-05-08 08:01 39.85220 -104.69653 5342 ft 6 kts 322°
2026-05-08 08:02 39.85255 -104.69659 5343 ft 4 kts
2026-05-08 08:02 39.85364 -104.69658 5342 ft 40 kts
2026-05-08 08:02 39.85840 -104.69653 5349 ft 96 kts
2026-05-08 08:02 39.86684 -104.69640 5343 ft 144 kts
2026-05-08 08:03 39.87825 -104.69651 5407 ft 177 kts 358°
2026-05-08 08:03 39.89017 -104.69670 6300 ft 166 kts 359°
2026-05-08 08:03 39.90203 -104.69640 6703 ft 181 kts
2026-05-08 08:03 39.91513 -104.69366 6918 ft 198 kts 21°
2026-05-08 08:04 39.92548 -104.68137 7141 ft 213 kts 61°
2026-05-08 08:04 39.93177 -104.66322 7433 ft 228 kts 66°
2026-05-08 08:04 39.93809 -104.64350 7729 ft 241 kts 66°
2026-05-08 08:04 39.94481 -104.62303 8135 ft 252 kts 65°
2026-05-08 08:05 39.94949 -104.60020 8403 ft 272 kts 84°
2026-05-08 08:05 39.95043 -104.57489 8751 ft 286 kts 88°
2026-05-08 08:05 39.95094 -104.54851 9253 ft 295 kts 87°
2026-05-08 08:05 39.95158 -104.52143 9746 ft 304 kts 87°
2026-05-08 08:06 39.95229 -104.49356 9945 ft 310 kts 86°
2026-05-08 08:06 39.95305 -104.46547 9972 ft 311 kts 86°
2026-05-08 08:06 39.95383 -104.43725 9965 ft 311 kts 86°
2026-05-08 08:06 39.95460 -104.40913 9957 ft 311 kts 86°
2026-05-08 08:07 39.95561 -104.38091 10009 ft 311 kts 84°
2026-05-08 08:07 39.95771 -104.35273 10219 ft 315 kts 82°
2026-05-08 08:07 39.95999 -104.32402 10668 ft 323 kts 82°
2026-05-08 08:07 39.96225 -104.29429 10977 ft 338 kts 82°
2026-05-08 08:08 39.96454 -104.26309 11303 ft 352 kts 82°
2026-05-08 08:08 39.96686 -104.23065 11606 ft 366 kts 82°
2026-05-08 08:08 39.96924 -104.19693 11848 ft 382 kts 83°
2026-05-08 08:08 39.97172 -104.16165 11878 ft 400 kts 83°
2026-05-08 08:09 39.97460 -104.12522 11999 ft 404 kts 80°
2026-05-08 08:09 39.97875 -104.08892 12598 ft 405 kts 78°
2026-05-08 08:09 39.98297 -104.05262 13237 ft 407 kts 79°
2026-05-08 08:09 39.98712 -104.01589 13808 ft 410 kts 79°
2026-05-08 08:10 39.99127 -103.97846 14310 ft 414 kts 79°
2026-05-08 08:10 39.99535 -103.94114 14834 ft 417 kts 79°
2026-05-08 08:10 39.99951 -103.90399 15351 ft 420 kts 77°
2026-05-08 08:10 40.00327 -103.87880 15697 ft 422 kts 75°
2026-05-08 08:11 40.00517 -103.86740 15859 ft 423 kts 74°